星链-32291 (STARLINK-32291)

导读

STARLINK-32291是美国SpaceX公司星链(Starlink)星座的一颗互联网通信卫星,于2024年12月29日由美国发射升空。星链项目旨在构建全球覆盖的低轨卫星互联网系统,为全球用户提供低成本、高性能的宽带互联网服务。作为星链星座的一员,该卫星运行在近地轨道,通过星间链路和地面站协同工作,补充和扩展星座网络的覆盖范围与通信能力,助力全球偏远地区网络覆盖,推动全球互联基础设施建设。

基本信息
目录编号:
62442
目录名称:
STARLINK-32291
国际标识:
2024-251L
轨道中心:
EARTH
卫星名称:
星链-32291
卫星全名:
星链-32291 (STARLINK-32291)
卫星状态:
在轨 (已飞行532 天)
发射日期:
2024-12-29 UTC
国别 :
美国 (US)
星等 :
--
轨道信息
数据来源 国际轨道数据
星历时间: 2026-06-14T06:21:02+0800
11小时前
查看轨道信息
半长轴: 6853.339km
偏心率: 0.0001469
轨道倾角: 53.158°
近地点辐角 92.242°
升交点赤经 248.257°
平近点角 267.875°
近地点: 474.195km
远地点: 476.209km
周期: 94.105分钟
每日圈数: 15.302045
详细信息
固有亮度:
5
最大亮度:
2.5
卫星平台:
Starlink V1.0
覆盖范围:
全球
运营商:
太空探索技术公司
运营商所在国:
美国
制造商(研发单位):
太空探索技术公司
制造商所在国:
美国
使用方式:
暂无
卫星简介
Starlink 计划是 SpaceX 推出的全球卫星互联网项目,通过发射低轨道卫星,为全球尤其是偏远地区提供高速、低延迟的互联网服务。自 2019 年起,Starlink 已部署数千颗卫星,旨在缩小全球数字鸿沟,推动互联网普及。该项目还为军事、航空等行业提供通信支持,带来广泛经济效益。
2D轨道图
3D轨道图
轨道高度分析图
轨道倾角分析图
轨道综合分析图
查看轨道综合分析图